map of PFO home
PFO - Airport
Location
City:  Paphos, Cyprus
Name:Paphos International Airport
ICAO:LCPH
IATA:PFO

Details
Type:Airport (Aerodrome, Airfield)
Use:Public/Civil, International (customs port of entry)
Latitude:3443'05"N (34.718039)
Longitude:3229'09"E (32.485731)
Datum:WGS 1984
Elevation:41 ft (12 m)
Variation:4.93E (WMM2015 magnetic declination)
0.09 annual change
Runways:1
Longest:8858 × 148 ft (2700 × 45 m), paved

Time
Time Zone:UTC+2 (DST+3)
Local Time:

Weather
METAR:LCPH 201630Z 04005KT 9999 SCT032 10/07 Q1022
TAF:LCPH 201130Z 2012/2112 14006KT 9999 FEW035
BECMG 2012/2014 24010KT
BECMG 2016/2018 03006KT
BECMG 2108/2112 12013KT

Related Locations
Nearby:
Farthest:RVV: 11684 mi / 18803 km
Raivavae, Tubuai Islands, Austral Islands, PF

Find:

   beyond  
but within

Other Information
Maps:
NOTAMs:
Links:
Sources:

  
flag of Cyprus   

Sectional Chart

Flight Planning
at skyvector.com

Satellite Image

Google Maps Satellite view

 

Copyright © 2004-2018 Karl L. Swartz. All rights reserved.
The Great Circle Mapper name and logo are trademarks of the Great Circle Mapper.
All other trademarks mentioned herein belong to their respective owners.
Please see credits for attibutions and further copyright information.

  Follow gcmap on Facebook Follow gcmap on Twitter Follow gcmap on Google+ GCmap on LinkedIn

hCard Microformat

Geo Microformat